Location: La Fredeussais
(48.1780°N, 1.3980°W)
Time: 05:04:37
(UTC+00:00)

PRISM - Visible Passes

Search period start: 26 October 2021 00:00
Search period end: 05 November 2021 00:00
Orbit: 563 x 583 km, 98.2° (Epoch: 25 October)

Date Brightness Start Highest point End Pass type
(mag) Time Alt. Az. Time Alt. Az. Time Alt. Az.
26 Oct ? 03:43:16 10° NNE 03:45:51 32° NE 03:45:51 32° NE visible
26 Oct ? 05:19:01 10° NNW 05:22:01 20° WNW 05:22:01 20° WNW visible
27 Oct ? 03:46:02 10° NNE 03:48:31 32° NE 03:48:31 32° NE visible
27 Oct ? 05:21:53 10° NNW 05:24:41 19° WNW 05:24:41 19° WNW visible
28 Oct ? 03:48:48 10° NNE 03:51:10 31° NE 03:51:10 31° NE visible
28 Oct ? 05:24:45 10° NNW 05:27:21 18° WNW 05:27:21 18° WNW visible
29 Oct ? 03:51:33 10° NNE 03:53:49 30° NE 03:53:49 30° NE visible
29 Oct ? 05:27:37 10° NNW 05:30:00 17° NW 05:30:00 17° NW visible
30 Oct ? 03:54:19 10° NNE 03:56:28 29° NE 03:56:28 29° NE visible
30 Oct ? 05:30:29 10° NNW 05:32:39 16° NW 05:32:39 16° NW visible
31 Oct ? 03:57:06 10° NNE 03:59:07 28° NNE 03:59:07 28° NNE visible
31 Oct ? 05:33:21 10° NNW 05:35:17 15° NW 05:35:17 15° NW visible
01 Nov ? 03:59:51 10° NNE 04:01:45 26° NNE 04:01:45 26° NNE visible
01 Nov ? 05:36:13 10° NNW 05:37:55 15° NW 05:37:55 15° NW visible
02 Nov ? 04:02:36 10° NNE 04:04:23 25° NNE 04:04:23 25° NNE visible
02 Nov ? 05:39:07 10° NNW 05:40:33 14° NW 05:40:33 14° NW visible
03 Nov ? 04:05:22 10° NNE 04:07:01 23° NNE 04:07:01 23° NNE visible
03 Nov ? 05:42:00 10° NNW 05:43:11 13° NW 05:43:11 13° NW visible
04 Nov ? 04:08:06 10° NNE 04:09:38 22° NNE 04:09:38 22° NNE visible
04 Nov ? 05:44:54 10° NNW 05:45:49 12° NW 05:45:49 12° NW visible
